Regional Weather Roundup
Issued by NWS Upton, NY

Current Version | Previous Version | Graphics & Text | Print | Product List | Glossary Off
Versions: 1 2 3 4 5 6 7 8 9 10 11 12 13 14 15 16 17 18 19 20 21 22 23 24 25 26 27 28 29 30 31 32 33 34 35 36 37 38 39 40 41 42 43 44 45 46 47 48 49 50

000
ASUS41 KOKX 011205
RWROKX

REGIONAL WEATHER ROUNDUP
NATIONAL WEATHER SERVICE NEW YORK NY
800 AM EDT MON SEP 01 2014

NOTE: "FAIR" INDICATES FEW OR NO CLOUDS BELOW 12,000 FEET WITH NO
SIGNIFICANT WEATHER AND/OR OBSTRUCTIONS TO VISIBILITY.

NYZ071-072-176-178-NJZ106-104-011300-
NEW YORK CITY METRO AREA


CITY           SKY/WX    TMP DP  RH WIND       PRES   REMARKS
CENTRAL PARK   PTSUNNY   76  71  85 CALM      30.04S
LAGUARDIA APRT CLOUDY    77  71  82 SW5       30.00S
KENNEDY INTL   CLOUDY    75  72  90 SW8       30.02S
NEWARK/LIBERTY PTSUNNY   76  73  91 SW5       30.01S
BRNX BOT. GARD   N/A     77  72  83 SW1       30.03S
TETERBORO      PTSUNNY   76  71  85 SW5       30.00S
$$

NYZ177-179-078>081-011300-
LONG ISLAND NEW YORK

CITY           SKY/WX    TMP DP  RH WIND       PRES   REMARKS
FARMINGDALE    CLOUDY    73  71  93 SW5       30.01F
ISLIP          CLOUDY    74  72  93 SW3       29.99F
SHIRLEY        CLOUDY    74  72  93 SW6       30.02S
WESTHAMPTON    CLOUDY    74  71  91 SW7       30.03R
MONTAUK POINT    N/A     73  71  93 VRB3      30.01F
$$

NYZ052-065-067-011300-
HUDSON VALLEY

CITY           SKY/WX    TMP DP  RH WIND       PRES   REMARKS
WHITE PLAINS   CLOUDY    74  72  93 W5        30.01S FOG
NEWBURGH       MOSUNNY   72  72 100 W8        30.03
MONTGOMERY     PTSUNNY   70  69  97 CALM      30.02S FOG
POUGHKEEPSIE   MOSUNNY   73  70  90 CALM      30.00S
ALBANY         PTSUNNY   71  69  93 S3        30.01S FOG
$$

NJZ001-105-106-008-010-013-015-019>022-104-011300-
NEW JERSEY

CITY           SKY/WX    TMP DP  RH WIND       PRES   REMARKS
NEWARK/LIBERTY PTSUNNY   76  73  91 SW5       30.01S
TETERBORO      PTSUNNY   76  71  85 SW5       30.00S
CALDWELL       PTSUNNY   74  70  87 VRB3      30.02S
MORRISTOWN     PTSUNNY   75  73  94 CALM      30.02S
SOMERVILLE     PTSUNNY   73  71  93 CALM      30.00F
LINDEN         FAIR      78  75  90 CALM      30.04R
SUSSEX         FOG       73  70  90 SW3       30.03R VSB 1/2
ANDOVER          N/A     72  71  97 CALM      30.04S
TRENTON        PTSUNNY   74  71  91 W3        30.02S
MILLVILLE      CLOUDY    74  72  93 CALM      30.04S
ATLANTIC CITY  CLOUDY    74  72  93 SW5       30.03S
WRIGHTSTOWN    CLOUDY    73  73 100 SW7       30.01S
TOMS RIVER     CLOUDY    72  72 100 CALM      30.03S
BELMAR         CLOUDY    72  68  88 SW3       30.03S
$$

PAZ047>061-062-071-011300-
EASTERN PENNSYLVANIA

CITY           SKY/WX    TMP DP  RH WIND       PRES   REMARKS
PHILADELPHIA   CLOUDY    75  72  90 SW6       30.03S
ALLENTOWN      CLOUDY    73  71  93 CALM      30.03S FOG
SCRANTON       CLOUDY    70  68  93 CALM      30.04S FOG
$$

CTZ002-004>006-009-010-012-RIZ004-006-007-MAZ004-011-015-011300-
SOUTHERN NEW ENGLAND
 IN CT

CITY           SKY/WX    TMP DP  RH WIND       PRES   REMARKS
BRADLEY INTL   PTSUNNY   72  69  90 CALM      29.99S
HARTFORD       PTSUNNY   73  71  93 S5        29.99F FOG
DANBURY        PTSUNNY   72  71  97 W6        30.02F FOG
WTRBRY/OXFORD  FOG       72  66  83 CALM      30.04S VSB 1
BRIDGEPORT     CLOUDY    75  73  93 SW6       30.00S
MERIDEN        CLOUDY    72  70  93 CALM      30.00S FOG
NEW HAVEN      CLOUDY    76  72  87 VRB3      30.00S FOG
CHESTER        PTSUNNY   73  72  94 CALM      30.02S FOG
GROTON           N/A     73  72  96 MISG      29.99F
WILLIMANTIC    FOG       70  69  97 CALM      30.01S VSB 1/4

 IN RI

CITY           SKY/WX    TMP DP  RH WIND       PRES   REMARKS
PROVIDENCE     CLOUDY    74  71  91 CALM      30.00S FOG
BLOCK ISLAND   CLOUDY    72  68  88 SW13      30.01F
WESTERLY       CLOUDY    73  72  96 SW3       30.01S FOG

 IN MA

CITY           SKY/WX    TMP DP  RH WIND       PRES   REMARKS
BOSTON         PTSUNNY   73  70  90 SW8       29.98S
WORCESTER      PTSUNNY   70  68  93 W8        30.03S
WESTFIELD      CLOUDY    71  69  93 CALM      30.01R
PROVINCETOWN   PTSUNNY   72  70  94 SW8       29.99F
NANTUCKET      CLOUDY    71  69  93 SW12      30.03S FOG
$$

ANZ330-335-338-340-345-350-353-355-011300-
COASTAL MARINE OBSERVATIONS


STATION/POSITION TIME  SKY/WX   TEMP    WIND        PRES    VSBY  WAVE
                                AIR SEA DIR/SP/G                  HT/PER
                 (UTC)          (F)     (DEG/KT/KT) (MB)    (MI)  (FT/S)
NY HARB ENTRANCE NOT AVBL
4S FIRE IS       NOT AVBL
23SW MTP         1200                                 N/A           4/ 6
HUDSON CANYON    1200            73 73  180/  6/  8 1017.0          4/ 6
EXECUTION ROCKS  1200            76 74  210/  2/  4   N/A
WESTERN LI SOUND 1100            75     230/  4/  4   N/A           0
CENTRAL LI SOUND 1100            72 73  240/  8/  8   N/A           1/ 2
EASTERN LI SOUND 1100            71 69  260/  4/  6   N/A
ROBBINS REEF     1200            74     250/  7/  7   N/A
$$


>>>>>>>>>>>>>>>>>>>>>>>>>>>> KEY <<<<<<<<<<<<<<<<<<<<<<<<<<<
>                                                          <
>     SKY/WX - SKY CONDITION/PRESENT WEATHER               <
>     TMP    - TEMPERATURE IN FAHRENHEIT                   <
>     DP     - DEWPOINT IN FAHRENHEIT                      <
>     RH     - RELATIVE HUMIDITY IN PERCENT                <
>     WIND   - DIRECTION AND SPEED IN MPH                  <
>     PRES   - MEAN SEA LEVEL PRESSURE IN INCHES OF HG     <
>     WCI    - WIND CHILL INDEX                            <
>     VSB    - VISIBILITY IN MILES                         <
>     HX     - HEAT INDEX                                  <
>     TC     - TEMPERATURE IN CELSIUS                      <
>     VRB    - VARIABLE WIND DIRECTION                     <
>                                                          <
>>>>>>>>>>>>>>>>>>>>>>>>>>>> KEY <<<<<<<<<<<<<<<<<<<<<<<<<<<




USA.gov is the U.S. government's official web portal to all federal, state and local government web resources and services.